Regional Weather Roundup
Issued by NWS Grand Forks, ND

Home | Current Version | Previous Version | Graphics & Text | Print | Product List | Glossary On
Versions: 1 2 3 4 5 6 7 8 9 10 11 12 13 14 15 16 17 18 19 20 21 22 23 24 25 26 27 28 29 30 31 32 33 34 35 36 37 38 39 40 41 42 43 44 45 46 47 48 49 50
000
ASUS43 KFGF 270610
RWRFGF
PRAIRIE TO PINES  WEATHER ROUNDUP
NATIONAL WEATHER SERVICE EASTERN NORTH DAKOTA/GRAND FORKS ND
1200 AM CST THU NOV 27 2014

 **SATELLITE DATA USED TO AUGMENT SKY COVER AT AUTOMATED STATIONS**
 *****  WEATHER ACROSS EASTERN NORTH DAKOTA  *****

CITY           SKY/WX    TMP DP  RH WIND       PRES   REMARKS
GRAND FORKS    FAIR     -14 -19  79 W5        30.57R WCI -26
6HR MIN TEMP: -16; 6HR MAX TEMP:  -7;

GRAND FRKS AFB PTCLDY   -13 -18  77 W3        30.56R
GRAND FRKS NWS   N/A     -9 N/A N/A N5          N/A  WCI -21
DEVILS LAKE    PTCLDY    -8 -18  59 CALM      30.46R
6HR MIN TEMP: -11; 6HR MAX TEMP:  -2;

FARGO          PTCLDY   -10 -17  71 W7        30.57R WCI -25
WAHPETON ARPT  PTCLDY    -6 -11  77 N6        30.55S WCI -18
$$

 ***** WEATHER ACROSS CENTRAL AND WESTERN NORTH DAKOTA  *****

CITY           SKY/WX    TMP DP  RH WIND       PRES   REMARKS
BISMARCK       PTCLDY   -11 -16  78 E7        30.47S WCI -26
6HR MIN TEMP: -11; 6HR MAX TEMP:   1;

MINOT          MOCLDY   -14 -20  74 S3        30.43S
6HR MIN TEMP: -16; 6HR MAX TEMP:  -5;

JAMESTOWN      MOCLDY   -24 -28  81 NW3       30.48S
6HR MIN TEMP: -25; 6HR MAX TEMP:  -9;

MINOT AFB      MOCLDY   -25 -30  78 S5        30.44S WCI -39
GARRISON         N/A     -1  -4  87 E9        30.41F WCI -16
WILLISTON      PTCLDY     9   5  84 S5        30.34F WCI   1
6HR MIN TEMP:   7; 6HR MAX TEMP:  11;

DICKINSON      CLOUDY    13  10  88 S14       30.29F WCI  -2
6HR MIN TEMP:   9; 6HR MAX TEMP:  13;

HETTINGER      CLOUDY    10   7  87 SE9       30.32F WCI  -3
6HR MIN TEMP:   9; 6HR MAX TEMP:  16;

$$

 *****  OTHER AIRPORT OBSERVATIONS IN OUR AREA  *****

CITY           SKY/WX    TMP DP  RH WIND       PRES   REMARKS
WALHALLA         N/A    -13 -18  77 SW3       30.54S
GRAFTON AIRPOR FAIR      -8 -13  77 W5        30.56F WCI -19
VALLEY CITY AR FAIR     -13 -17  84 W3        30.51R
CANDO          FAIR     -13 -18  77 CALM      30.48S
CAVALIER APRT  FAIR     -13 -18  77 CALM      30.55S
GWINNER        CLEAR     -4 -13  65 N8        30.52S WCI -19
SHEYENNE NWR     N/A    -14 -21  70 N2        29.95S
ROLLA          FAIR     -11 -17  77 W8        30.43S WCI -28
 ***** THE ABOVE OBSERVATIONS ARE NON NWS ARE NOT QUALITY
       CONTROLLED AND MAY MIS-REPORT RAIN FOR SNOW...
$$

  *****  WEATHER ACROSS NORTHERN MINNESOTA  *****

CITY           SKY/WX    TMP DP  RH WIND       PRES   REMARKS
FLAG ISLAND    PTCLDY   -11 -17  77 NW6       30.47R WCI -25
WARROAD        PTCLDY   -13 -18  77 W3        30.48S
ROSEAU         PTCLDY    -9 -17  70 W3        30.51R
HALLOCK        MOCLDY   -15 -18  84 CALM      30.55R
THF RVR FALLS  PTCLDY    -9 -13  84 NW5       30.51R WCI -21
6HR MIN TEMP:  -9; 6HR MAX TEMP:  -4;

BAUDETTE       CLEAR     -9 -14  78 CALM      30.46S
6HR MIN TEMP: -10; 6HR MAX TEMP:  -4;

WASKISH        CLEAR     -8 -11  84 CALM      30.46R
CROOKSTON      PTCLDY   -11 -17  77 NW3       30.57R
STEPHEN NDAWN    N/A    -13 -18  77 W2          N/A
GREENBUSH NDAW   N/A    -13 -18  77 SW3         N/A
$$
  *****  WEATHER ACROSS CENTRAL AND WEST MINNESOTA  *****

CITY           SKY/WX    TMP DP  RH WIND       PRES   REMARKS
FOSSTON        PTCLDY   -17 -20  83 W3        30.49R
BEMIDJI        FAIR     -14 -18  81 NW7       30.44S WCI -30
PARK RAPIDS    CLEAR     -8 -13  78 NW5       30.44R WCI -19
6HR MIN TEMP: -10; 6HR MAX TEMP:   0;

ELBOW LAKE     FAIR      -5  -9  84 N9        30.49R WCI -21
WADENA         CLEAR     -6  -9  84 NW7       30.45R WCI -20
DETROIT LAKES  CLEAR     -8 -13  77 NW6       30.49R WCI -21
MOORHEAD       PTCLDY    -9 -11  92 NW5       30.56S WCI -21
FERGUS FALLS   PTCLDY    -8 -15  71 N9        30.55S WCI -25
MORRIS MN      PTCLDY    -4  -9  77 N12       30.49R WCI -22
STAPLES        CLEAR     -8 -11  84 NW7       30.45R WCI -22
$$
  *****  WEATHER ELSEWHERE ACROSS MINNESOTA  *****

CITY           SKY/WX    TMP DP  RH WIND       PRES   REMARKS
DULUTH         PTCLDY    -2  -8  76 NW15      30.33R WCI -22
6HR MIN TEMP:  -2; 6HR MAX TEMP:  11;

INTRNTL FALLS  CLEAR    -10 -15  78 NW5       30.45R WCI -22
6HR MIN TEMP: -10; 6HR MAX TEMP:  -3;

ELY            CLEAR     -8 -11  84 NW5       30.37R WCI -19
CLOQUET        CLEAR      0  -8  71 NW9       30.37R WCI -16
WHEATON        PTCLDY    -8  -9  92 NW5       30.55S WCI -19
BRAINERD       CLEAR     -1  -9  68 N13       30.44R WCI -19
6HR MIN TEMP:  -1; 6HR MAX TEMP:   9;

HIBBING        CLEAR     -5 -11  75 NW7       30.39R WCI -19
6HR MIN TEMP:  -5; 6HR MAX TEMP:   7;

ALEXANDRIA     CLEAR     -3  -8  79 NW8       30.46R WCI -18
6HR MIN TEMP:  -3; 6HR MAX TEMP:   8;

SAINT CLOUD    CLEAR      4  -5  66 N9        30.44R WCI -10
6HR MIN TEMP:   4; 6HR MAX TEMP:  19;

MINNEAPOLIS    PTCLDY    11   0  61 NW12      30.40R WCI  -3
6HR MIN TEMP:  11; 6HR MAX TEMP:  23; 6HR PCP: TRACE;

$$

  *****  WEATHER ACROSS SOUTH DAKOTA  *****

CITY           SKY/WX    TMP DP  RH WIND       PRES   REMARKS
SIOUX FALLS    CLEAR      3  -5  69 N7        30.46R WCI  -9
6HR MIN TEMP:   3; 6HR MAX TEMP:  15;

BROOKINGS      NOT AVBL
WATERTOWN      PTCLDY    -5 -11  75 NW5       30.45R WCI -16
6HR MIN TEMP:  -8; 6HR MAX TEMP:   6;

HURON          PTCLDY     0  -6  76 N7        30.51R WCI -13
6HR MIN TEMP:   0; 6HR MAX TEMP:  10;

SISSETON         N/A     -8 -12  83 N8        30.52R WCI -24
ABERDEEN       MOCLDY    -7 -12  79 N5        30.53R WCI -18
6HR MIN TEMP:  -7; 6HR MAX TEMP:   6;

MITCHELL       CLOUDY     9   1  70 N10       30.52R WCI  -5
PIERRE         CLOUDY    13   7  77 E7        30.44R WCI   3
6HR MIN TEMP:  13; 6HR MAX TEMP:  17; 6HR PCP: TRACE;

MOBRIDGE       PTCLDY     1  -4  79 SE8       30.42S WCI -13
RAPID CITY     CLOUDY    24  22  91 E8        30.26F WCI  15
6HR MIN TEMP:  24; 6HR MAX TEMP:  30; 6HR PCP: TRACE;

$$

  *****  SOME WEATHER IN NEARBY STATES *****

CITY           SKY/WX    TMP DP  RH WIND       PRES   REMARKS
GLASGOW MT     CLOUDY    16  10  77 E16       30.21F WCI   1
6HR MIN TEMP:  16; 6HR MAX TEMP:  19;

GREAT FALLS MT CLOUDY    28  27  93 SW10      29.95F FOG     WCI  19
6HR MIN TEMP:  22; 6HR MAX TEMP:  29;

CHEYENNE WY    PTCLDY    25  20  81 CALM      30.21S
6HR MIN TEMP:  23; 6HR MAX TEMP:  31;

SCOTTSBLUFF NE CLOUDY    22  20  92 E9        30.24F WCI  12
6HR MIN TEMP:  16; 6HR MAX TEMP:  29; 6HR PCP:  0.01;

OMAHA NE       CLOUDY    21  15  78 N17       30.47R WCI   7
6HR MIN TEMP:  21; 6HR MAX TEMP:  26;

DES MOINES IA  FLURRIES  22  17  81 N14       30.39R WCI   9
6HR MIN TEMP:  22; 6HR MAX TEMP:  31; 6HR PCP:  0.02;

DAVENPORT IA   CLEAR     19  15  84 NW7       30.27R WCI  10
6HR MIN TEMP:  19; 6HR MAX TEMP:  27;

CHICAGO IL     FLURRIES  26  21  81 NW9       30.18R WCI  17
6HR MIN TEMP:  26; 6HR MAX TEMP:  29; 6HR PCP: TRACE;

EAU CLAIRE WI  CLOUDY    17  10  74 N10       30.32R WCI   5
6HR MIN TEMP:  17; 6HR MAX TEMP:  25; 6HR PCP: TRACE;

LA CROSSE WI   CLOUDY    25  18  74 NW9       30.30R WCI  15
6HR MIN TEMP:  20; 6HR MAX TEMP:  26; 6HR PCP:  0.01;

$$

  *****  SOME NATIONAL WEATHER *****

CITY           SKY/WX    TMP DP  RH WIND       PRES   REMARKS
LA GUARDIA NY  CLOUDY    36  31  82 NW20G29   29.84R
6HR MIN TEMP:  35; 6HR MAX TEMP:  37; 6HR PCP:  0.07;

RALEIGH NC     MOCLDY    39  37  92 CALM      30.07R
6HR MIN TEMP:  35; 6HR MAX TEMP:  43; 6HR PCP:  0.01;

ATLANTA GA     PTCLDY    49  29  46 W13G21    30.07R
6HR MIN TEMP:  45; 6HR MAX TEMP:  49;

NEW ORLEANS LA CLEAR     57  48  72 W13       30.27S
6HR MIN TEMP:  56; 6HR MAX TEMP:  61;

OKLAHOMA CITY  PTCLDY    34  23  64 W6        30.45R
6HR MIN TEMP:  34; 6HR MAX TEMP:  49;

ALBUQUERQUE NM PTCLDY    44  22  41 NW3       30.42R
6HR MIN TEMP:  42; 6HR MAX TEMP:  58;

SALT LAKE CITY PTCLDY    44  27  51 SE12      30.35S
6HR MIN TEMP:  43; 6HR MAX TEMP:  57;

LOS ANGELES CA CLEAR     64  49  57 CALM      30.14S


USA.gov is the U.S. government's official web portal to all federal, state and local government web resources and services.